Find Satcom 5

NORAD ID: 13631 Int'l Des: 1982-105 Owner: AMC Country: US operational
HEOCIRCULARGSO

Live Position

Loading 3D Globe...

About Satcom 5

Description loading...

Upcoming Passes

Passes for default location (London). Set your location on the main map for personalized predictions.

Altitude History

Loading altitude history...

Two-Line Element Set

1 13631U 82105A 26105.63519222 -.00000099 00000-0 00000+0 0 9992
2 13631 12.1694 332.9239 0006278 41.2538 312.2216 1.00273534125747
Epoch: Apr 15, 2026 • Age: 22 hours

Current Status

Altitude 35779.8 km
Velocity 3.08 km/s
Sub-Earth Point -6.68°S, 105.53°W
Launch Date Oct 28, 1982
Age 43.4 years
Type other

Technical Details

Classification Payload
Mass 573.00 kg
Dry Mass 430.00 kg
Total Mass 1116.00 kg
Length 1.80 m
Diameter 1.40 m
Span 14.00 m
Shape Box + 2 Pan
Manufacturer RCA
Bus Type Adv Satcom
Phase Status In Orbit
Owner/State AMC/US

Most Searched